Redmond, OR

4:58 PM PST on January 21, 2017 (GMT -0800)
Redmond

Weather History for KRDM - September, 2013

Change the Weather History Date:

Thursday, September 12, 2013

  Actual Average Record
Temperature  
Mean Temperature 69 °F 58 °F  
Max Temperature 92 °F 78 °F 94 °F (2002)
Min Temperature 46 °F 39 °F 24 °F (2012)
Degree Days  
Heating Degree Days 0 7  
Month to date heating degree days 21 72  
Since 1 July heating degree days 57 221  
Cooling Degree Days 4 1  
Month to date cooling degree days 19 12  
Year to date cooling degree days 333 218  
Growing Degree Days 18 (Base 50)    
Moisture  
Dew Point 42 °F    
Average Humidity 46    
Maximum Humidity 76    
Minimum Humidity 16    
Precipitation  
Precipitation 0.00 in 0.01 in 0.07 in (1980)
Month to date precipitation 0.02 0.16  
Year to date precipitation 3.10 5.89  
Sea Level Pressure  
Sea Level Pressure 29.94 in    
Wind  
Wind Speed 4 mph (NNW)    
Max Wind Speed 15 mph    
Max Gust Speed 18 mph    
Visibility 10 miles    
Events      
T = Trace of Precipitation, MM = Missing Value Source: NWS Daily Summary

Daily Weather History Graph

Daily Weather History Graph

Search for Another Location

Airport or City:

Trip Planner

Search our weather history database for the weather conditions in past years. The results will help you decide how hot, cold, wet, or windy it might be!

Date:

Astronomy

Sep. 12, 2013 Rise Set
Actual Time 6:40 AM PDT 7:20 PM PDT
Civil Twilight 6:11 AM PDT 7:49 PM PDT
Nautical Twilight 5:36 AM PDT 8:23 PM PDT
Astronomical Twilight 5:00 AM PDT 8:59 PM PDT
Moon 2:27 PM PDT (9/12) No Moon Set
Length of Visible Light 13h 37m
Length of Day
12h 39m
Waxing Crescent, 51% of the Moon is Illuminated
Sep 12
Waxing Crescent
Sep 19
Full
Sep 26
Last Quarter
Oct 4
New
Oct 11
First Quarter

Hourly Weather History & Observations

Time (PDT) Temp. Dew Point Humidity Pressure Visibility Wind Dir Wind Speed Gust Speed Precip Events Conditions
12:56 AM 64.9 °F 43.0 °F 45% 29.98 in 10.0 mi WNW 5.8 mph - N/A   Clear
1:56 AM 57.9 °F 42.1 °F 56% 29.99 in 10.0 mi South 5.8 mph - N/A   Clear
2:56 AM 57.0 °F 42.1 °F 57% 29.98 in 10.0 mi Calm Calm - N/A   Clear
3:56 AM 54.0 °F 41.0 °F 62% 29.98 in 10.0 mi Calm Calm - N/A   Clear
4:56 AM 53.1 °F 41.0 °F 64% 29.98 in 10.0 mi Calm Calm - N/A   Clear
5:56 AM 46.9 °F 39.0 °F 74% 30.00 in 10.0 mi Calm Calm - N/A   Clear
6:56 AM 52.0 °F 41.0 °F 66% 30.00 in 10.0 mi Calm Calm - N/A   Clear
7:56 AM 57.0 °F 42.1 °F 57% 30.01 in 10.0 mi Calm Calm - N/A   Clear
8:56 AM 66.0 °F 43.0 °F 43% 30.00 in 10.0 mi Calm Calm - N/A   Clear
9:56 AM 72.0 °F 44.1 °F 37% 29.99 in 10.0 mi Calm Calm - N/A   Clear
10:56 AM 77.0 °F 46.0 °F 33% 29.98 in 10.0 mi Calm Calm - N/A   Clear
11:56 AM 81.0 °F 46.0 °F 29% 29.96 in 10.0 mi Calm Calm - N/A   Clear
12:56 PM 82.9 °F 46.0 °F 27% 29.94 in 10.0 mi North 5.8 mph - N/A   Clear
1:56 PM 87.1 °F 44.1 °F 22% 29.92 in 10.0 mi North 5.8 mph - N/A   Clear
2:56 PM 90.0 °F 46.0 °F 22% 29.89 in 10.0 mi NNW 11.5 mph - N/A   Clear
3:56 PM 91.0 °F 45.0 °F 20% 29.88 in 10.0 mi NNW 12.7 mph - N/A   Clear
4:56 PM 91.0 °F 42.1 °F 18% 29.87 in 10.0 mi North 13.8 mph - N/A   Clear
5:56 PM 90.0 °F 37.9 °F 16% 29.87 in 10.0 mi NNW 10.4 mph - N/A   Clear
6:56 PM 87.1 °F 39.9 °F 19% 29.88 in 10.0 mi NNW 5.8 mph - N/A   Clear
7:56 PM 80.1 °F 44.1 °F 28% 29.89 in 10.0 mi NNW 6.9 mph - N/A   Clear
8:56 PM 79.0 °F 43.0 °F 28% 29.91 in 10.0 mi NNW 11.5 mph - N/A   Clear
9:56 PM 75.9 °F 39.9 °F 27% 29.91 in 10.0 mi NNW 8.1 mph - N/A   Clear
10:56 PM 73.0 °F 39.9 °F 30% 29.91 in 10.0 mi Calm Calm - N/A   Clear
11:56 PM 68.0 °F 39.0 °F 35% 29.91 in 10.0 mi Calm Calm - N/A   Clear